OneWeb SL0398

operational
NORAD ID: 50478 Int'l Des: 2021-132 Owner: ONEWEBN Country: UK Constellation: oneweb
LEOCIRCULARPOLARONEWEB_TYPE

About OneWeb SL0398

Description loading...

Live Position

Loading 3D Globe...

Upcoming Passes

Altitude History

Altitude vs Time

uPlot chart will show altitude changes over time

Two-Line Element Set

1 50478U 21132K 25296.61483970 -.00000157 00000-0 -47906-3 0 9999
2 50478 87.8836 68.1594 0001986 92.2774 267.8581 13.11415106184603
Epoch: Oct 23, 2025 • Age: 11 hours

Current Status

Altitude 1219.9 km
Velocity 7.25 km/s
Sub-Earth Point 22.92°N, 8.35°E
Launch Date Dec 27, 2021
Age 3.8 years
Type internet

Technical Details

Classification Payload
Mass 148.00 kg
Dry Mass 140.00 kg
Total Mass 148.00 kg
Length 1.30 m
Diameter 1.00 m
Span 5.00 m
Shape Trapezoid+2 pan
Manufacturer ONEWUS
Bus Type ARROW
Phase Status In Orbit
Owner/State ONEWEBN/UK

Large Constellations

Loading constellations...